Chandler, OK

1:25 AM CDT on September 23, 2017 (GMT -0500)
Chandler Municipal

Weather History for KCQB - May, 2014

Change the Weather History Date:

Friday, May 16, 2014

  Actual Average (KCUH) Record (KCUH)
Temperature  
Mean Temperature 62 °F -  
Max Temperature 78 °F 79 °F 90 °F (1966)
Min Temperature 46 °F 57 °F 42 °F (2011)
Degree Days  
Heating Degree Days 3    
Growing Degree Days 12 (Base 50)    
Moisture  
Dew Point 48 °F    
Average Humidity 61    
Maximum Humidity 100    
Minimum Humidity 32    
Precipitation  
Precipitation 0.00 in - - ()
Sea Level Pressure  
Sea Level Pressure 30.06 in    
Wind  
Wind Speed 7 mph (South)    
Max Wind Speed 16 mph    
Max Gust Speed 28 mph    
Visibility 10 miles    
Events      
Averages and records for this station are not official NWS values.
T = Trace of Precipitation, MM = Missing Value Source: NWS Daily Summary

Daily Weather History Graph

Daily Weather History Graph

Search for Another Location

Airport or City:

Trip Planner

Search our weather history database for the weather conditions in past years. The results will help you decide how hot, cold, wet, or windy it might be!

Date:

Astronomy

May. 16, 2014 Rise Set
Actual Time 6:21 AM CDT 8:26 PM CDT
Civil Twilight 5:52 AM CDT 8:54 PM CDT
Nautical Twilight 5:18 AM CDT 9:29 PM CDT
Astronomical Twilight 4:40 AM CDT 10:07 PM CDT
Moon 10:34 PM CDT (5/16) 8:04 AM CDT (5/16)
Length of Visible Light 15h 02m
Length of Day
14h 05m
Waning Gibbous, 95% of the Moon is Illuminated
May 16
Waning Gibbous
May 21
Last Quarter
May 28
New
Jun 5
First Quarter
Jun 12
Full

Hourly Weather History & Observations

Time (CDT) Temp. Windchill Dew Point Humidity Pressure Visibility Wind Dir Wind Speed Gust Speed Precip Events Conditions
12:15 AM 51.8 °F - 44.6 °F 76% 30.15 in 10.0 mi South 4.6 mph - N/A   Clear
12:35 AM 51.8 °F - 44.6 °F 76% 30.15 in 10.0 mi SSW 6.9 mph - N/A   Clear
1:15 AM 50.0 °F - 44.6 °F 82% 30.15 in 10.0 mi SSW 5.8 mph - N/A   Clear
1:35 AM 50.0 °F - 44.6 °F 82% 30.15 in 10.0 mi SSW 6.9 mph - N/A   Clear
1:55 AM 50.0 °F - 46.4 °F 87% 30.15 in 10.0 mi SW 5.8 mph - N/A   Clear
2:15 AM 50.0 °F - 46.4 °F 87% 30.14 in 10.0 mi SW 6.9 mph - N/A   Clear
2:35 AM 50.0 °F - 46.4 °F 87% 30.14 in 10.0 mi SW 5.8 mph - N/A   Clear
2:55 AM 50.0 °F - 46.4 °F 87% 30.14 in 10.0 mi SW 4.6 mph - N/A   Clear
3:15 AM 50.0 °F - 46.4 °F 87% 30.14 in 10.0 mi SW 5.8 mph - N/A   Clear
3:35 AM 48.2 °F - 44.6 °F 87% 30.13 in 10.0 mi SSW 5.8 mph - N/A   Clear
3:55 AM 48.2 °F - 46.4 °F 93% 30.13 in 10.0 mi SW 5.8 mph - N/A   Clear
4:15 AM 48.2 °F - 46.4 °F 93% 30.13 in 10.0 mi SW 5.8 mph - N/A   Clear
4:35 AM 48.2 °F - 46.4 °F 93% 30.13 in 10.0 mi SW 6.9 mph - N/A   Clear
4:55 AM 48.2 °F - 46.4 °F 93% 30.13 in 10.0 mi SW 5.8 mph - N/A   Clear
5:15 AM 48.2 °F - 46.4 °F 93% 30.13 in 10.0 mi SW 5.8 mph - N/A   Clear
5:35 AM 46.4 °F 44.3 °F 46.4 °F 100% 30.12 in 10.0 mi WSW 4.6 mph - N/A   Clear
5:55 AM 46.4 °F 43.5 °F 46.4 °F 100% 30.12 in 10.0 mi SW 5.8 mph - N/A   Clear
6:15 AM 46.4 °F 44.3 °F 46.4 °F 100% 30.12 in 10.0 mi WSW 4.6 mph - N/A   Clear
6:35 AM 48.2 °F - 46.4 °F 93% 30.12 in 10.0 mi SW 5.8 mph - N/A   Clear
6:55 AM 48.2 °F - 46.4 °F 93% 30.12 in 10.0 mi SW 4.6 mph - N/A   Clear
7:15 AM 50.0 °F - 48.2 °F 94% 30.12 in 10.0 mi SW 5.8 mph - N/A   Clear
7:35 AM 51.8 °F - 50.0 °F 94% 30.12 in 10.0 mi SW 5.8 mph - N/A   Clear
7:55 AM 53.6 °F - 50.0 °F 88% 30.12 in 10.0 mi SW 6.9 mph - N/A   Clear
8:15 AM 55.4 °F - 50.0 °F 82% 30.12 in 10.0 mi SW 6.9 mph - N/A   Clear
8:35 AM 59.0 °F - 50.0 °F 72% 30.11 in 10.0 mi SW 10.4 mph - N/A   Clear
8:55 AM 60.8 °F - 50.0 °F 68% 30.12 in 10.0 mi SW 8.1 mph - N/A   Clear
9:15 AM 62.6 °F - 50.0 °F 63% 30.12 in 10.0 mi SSW 6.9 mph - N/A   Clear
9:35 AM 64.4 °F - 50.0 °F 59% 30.11 in 10.0 mi SSW 4.6 mph - N/A   Clear
9:55 AM 68.0 °F - 50.0 °F 52% 30.11 in 10.0 mi South 6.9 mph - N/A   Clear
10:15 AM 68.0 °F - 50.0 °F 52% 30.10 in 10.0 mi South 8.1 mph - N/A   Clear
10:35 AM 69.8 °F - 46.4 °F 43% 30.10 in 10.0 mi SSW 8.1 mph - N/A   Scattered Clouds
10:55 AM 69.8 °F - 46.4 °F 43% 30.10 in 10.0 mi South 8.1 mph - N/A   Mostly Cloudy
11:15 AM 69.8 °F - 44.6 °F 40% 30.10 in 10.0 mi South 5.8 mph - N/A   Mostly Cloudy
11:35 AM 73.4 °F - 46.4 °F 38% 30.09 in 10.0 mi SSW 5.8 mph - N/A   Scattered Clouds
11:55 AM 73.4 °F - 44.6 °F 36% 30.08 in 10.0 mi SW 9.2 mph - N/A   Clear
12:15 PM 73.4 °F - 46.4 °F 38% 30.07 in 10.0 mi South 5.8 mph - N/A   Clear
12:35 PM 73.4 °F - 46.4 °F 38% 30.07 in 10.0 mi South 6.9 mph - N/A   Clear
12:55 PM 75.2 °F - 46.4 °F 36% 30.06 in 10.0 mi South 6.9 mph 10.4 mph N/A   Clear
1:15 PM 75.2 °F - 46.4 °F 36% 30.05 in 10.0 mi SSE 8.1 mph - N/A   Clear
1:35 PM 77.0 °F - 46.4 °F 34% 30.04 in 10.0 mi SSE 8.1 mph - N/A   Clear
1:55 PM 77.0 °F - 44.6 °F 32% 30.03 in 7.0 mi SE 4.6 mph - N/A   Clear
2:15 PM 77.0 °F - 46.4 °F 34% 30.02 in 10.0 mi WSW 9.2 mph - N/A   Clear
2:35 PM 77.0 °F - 46.4 °F 34% 30.01 in 10.0 mi South 9.2 mph - N/A   Clear
2:55 PM 78.8 °F - 46.4 °F 32% 30.00 in 10.0 mi South 11.5 mph 16.1 mph N/A   Clear
3:15 PM 78.8 °F - 46.4 °F 32% 29.99 in 10.0 mi South 9.2 mph 16.1 mph N/A   Clear
3:35 PM 77.0 °F - 48.2 °F 36% 29.98 in 10.0 mi South 10.4 mph - N/A   Clear
3:55 PM 78.8 °F - 48.2 °F 34% 29.97 in 10.0 mi SSE 10.4 mph 17.3 mph N/A   Clear
4:15 PM 78.8 °F - 50.0 °F 36% 29.96 in 10.0 mi South 6.9 mph - N/A   Clear
4:35 PM 78.8 °F - 50.0 °F 36% 29.96 in 10.0 mi SE 9.2 mph - N/A   Clear
4:55 PM 78.8 °F - 48.2 °F 34% 29.97 in 10.0 mi South 6.9 mph - N/A   Clear
5:15 PM 78.8 °F - 48.2 °F 34% 29.96 in 10.0 mi SSE 4.6 mph - N/A   Clear
5:35 PM 77.0 °F - 50.0 °F 39% 29.96 in 10.0 mi SSE 9.2 mph - N/A   Clear
5:55 PM 77.0 °F - 50.0 °F 39% 29.95 in 10.0 mi South 10.4 mph - N/A   Clear
6:15 PM 77.0 °F - 51.8 °F 41% 29.95 in 10.0 mi SSE 13.8 mph 17.3 mph N/A   Clear
6:35 PM 75.2 °F - 51.8 °F 44% 29.95 in 10.0 mi South 10.4 mph - N/A   Clear
6:55 PM 75.2 °F - 51.8 °F 44% 29.94 in 10.0 mi SSE 10.4 mph 17.3 mph N/A   Clear
7:15 PM 73.4 °F - 51.8 °F 47% 29.94 in 10.0 mi SE 11.5 mph 16.1 mph N/A   Clear
7:35 PM 73.4 °F - 51.8 °F 47% 29.94 in 10.0 mi SSE 9.2 mph - N/A   Clear
7:55 PM 71.6 °F - 53.6 °F 53% 29.93 in 10.0 mi SE 6.9 mph - N/A   Clear
8:15 PM 71.6 °F - 53.6 °F 53% 29.95 in 10.0 mi SE 8.1 mph - N/A   Clear
8:35 PM 69.8 °F - 53.6 °F 56% 29.95 in 10.0 mi SE 6.9 mph - N/A   Clear
8:55 PM 69.8 °F - 53.6 °F 56% 29.96 in 10.0 mi East 6.9 mph - N/A   Clear
9:15 PM 68.0 °F - 51.8 °F 56% 29.98 in 10.0 mi East 6.9 mph - N/A   Clear
9:35 PM 68.0 °F - 51.8 °F 56% 29.99 in 10.0 mi East 11.5 mph - N/A   Clear
9:55 PM 68.0 °F - 51.8 °F 56% 30.01 in 10.0 mi East 16.1 mph 24.2 mph N/A   Clear
10:15 PM 64.4 °F - 48.2 °F 56% 30.03 in 10.0 mi ENE 12.7 mph 27.6 mph N/A   Clear
10:35 PM 62.6 °F - 46.4 °F 55% 30.04 in 10.0 mi ENE 15.0 mph 27.6 mph N/A   Mostly Cloudy
10:55 PM 62.6 °F - 46.4 °F 55% 30.05 in 10.0 mi ENE 13.8 mph 19.6 mph N/A   Overcast
11:15 PM 59.0 °F - 46.4 °F 63% 30.06 in 10.0 mi ENE 13.8 mph 23.0 mph N/A   Scattered Clouds
11:35 PM 59.0 °F - 46.4 °F 63% 30.07 in 10.0 mi NE 12.7 mph 24.2 mph N/A   Clear
11:55 PM 57.2 °F - 44.6 °F 63% 30.08 in 10.0 mi ENE 13.8 mph 26.5 mph N/A   Mostly Cloudy